[[{"header":{"parameterUnit":"m.s-1","parameterCategory":1,"la1":30.2991,"la2":30.254,"lo1":-89.0895,"lo2":-89.0444,"dy":0.0017,"dx":0.0017,"nx":28,"ny":28,"refTime":"2025-03-02T09:00:00:Z","depth":0,"parameterNumber":2,"parameterNumberName":"U-component_of_WINDS"},"data":[0,0,0,0,0,0,0,0,0,0,0,0,0,0,0,0,0,0,0,0,0,0,0,0,0,0,0,0,0,0,0,0,0,0,0,0,0,0,0,0,0,0,0,0,0,0,0,0,0,0,0,0,0,0,0,0,0,0,0.2307,0.2309,0,0.2445,0.2446,0.2448,0.2514,0.2514,0.2514,0.2514,0.2659,0.2663,0.2666,0,0,0,0,0,0,0,0,0,0,0,0,0,0.211,0.2113,0.2307,0.2309,0.231,0.2444,0.2446,0.2448,0.2514,0.2514,0.2514,0.2514,0.2658,0.2662,0.2667,0,0,0,0,0,0,0,0,0,0,0,0,0,0.2216,0.2114,0.2307,0.236,0.2366,0.2444,0.2446,0.2449,0.2514,0.2514,0.2514,0.2514,0.2656,0.2662,0.2667,0.2705,0,0,0.2685,0.2688,0,0,0,0,0,0,0,0,0.221,0.2224,0.235,0.2356,0.2363,0.2462,0.243,0.2535,0.2514,0.2458,0.2514,0.2514,0.2594,0.2605,0.2631,0.2711,0.2718,0.2686,0.2689,0.2692,0.2693,0,0,0,0,0,0,0,0.2203,0.2218,0.2362,0.2352,0.236,0.2379,0.2394,0.245,0.2525,0.2463,0.2468,0.2483,0.2597,0.2625,0.2635,0.272,0.2686,0.2691,0.2694,0.2697,0.2846,0.2847,0,0,0,0,0,0,0.2186,0.2211,0.2357,0.2366,0.2285,0.2383,0.24,0.2431,0.2524,0.2538,0.2483,0.2486,0.2615,0.2628,0.264,0.2695,0.2692,0.2697,0.2701,0.2846,0.2846,0.2847,0,0,0,0,0,0,0.2181,0.2198,0.2352,0.229,0.2311,0.2386,0.242,0.2433,0.2461,0.2539,0.2554,0.2497,0.2615,0.2632,0.269,0.27,0.27,0.2705,0.2845,0.2846,0.2847,0.2801,0,0,0,0,0,0,0.2175,0.2196,0.2209,0.229,0.2314,0.2396,0.2421,0.2436,0.247,0.2475,0.2556,0.257,0.2617,0.2681,0.2695,0.2708,0.271,0.2845,0.2845,0.2846,0.2802,0.28,0.2798,0,0,0,0,0,0.2168,0.2189,0.2209,0.2226,0.2331,0.2396,0.2411,0.2463,0.2471,0.2486,0.2538,0.2567,0.2697,0.2686,0.2703,0.2718,0.2844,0.2845,0.2846,0.2802,0.28,0.2798,0,0,0,0,0,0,0.2107,0.2201,0.2223,0.2271,0.2325,0.2407,0.2427,0.2458,0.2512,0.2514,0.2578,0.2596,0.265,0.269,0.2676,0.2763,0.2774,0.2778,0.2734,0.2733,0.2731,0.2721,0.2715,0,0,0,0,0,0.2099,0.2142,0.2223,0.2257,0.2284,0.2351,0.2381,0.2418,0.2477,0.25,0.2556,0.2614,0.2669,0.2703,0.2757,0.2808,0.283,0.2828,0.2826,0.2824,0.2827,0.2864,0.2866,0.285,0.285,0.285,0,0,0.2083,0.214,0.2163,0.2247,0.2293,0.234,0.237,0.2416,0.2453,0.2508,0.2567,0.261,0.268,0.2736,0.2763,0.2771,0.2837,0.2825,0.2823,0.2828,0.2865,0.2867,0.2868,0.2851,0.2851,0.2851,0,0,0.2078,0.2123,0.216,0.2207,0.2277,0.2323,0.2332,0.2411,0.2442,0.2502,0.2547,0.2593,0.2683,0.2733,0.277,0.2792,0.2823,0.2808,0.2799,0.2834,0.2835,0.2837,0.2849,0.2852,0.2811,0.2811,0.281,0,0.2049,0.2119,0.2175,0.2221,0.2259,0.2312,0.2352,0.2396,0.248,0.2507,0.2514,0.2634,0.2684,0.2755,0.2761,0.2788,0.2804,0.2798,0.283,0.2832,0.2834,0.2847,0.2851,0.2808,0.2809,0.2809,0.2809,0,0.2083,0.2132,0.2153,0.2235,0.2276,0.2318,0.2384,0.2419,0.2453,0.2499,0.2564,0.2627,0.2697,0.2717,0.275,0.2796,0.2799,0.2817,0.283,0.2833,0.2846,0.2851,0.2805,0.2806,0.2807,0.2807,0,0,0.204,0.2156,0.2163,0.2204,0.2288,0.2328,0.2376,0.2445,0.2477,0.2535,0.258,0.2659,0.2678,0.2721,0.2761,0.2791,0.2811,0.2807,0.281,0.2809,0.2872,0.2859,0.2863,0.2832,0.2833,0.2834,0.2867,0,0.2049,0.2135,0.219,0.2255,0.2305,0.2359,0.2402,0.2461,0.2507,0.2558,0.261,0.2666,0.2685,0.2712,0.2745,0.2801,0.2825,0.28,0.2879,0.2881,0.2861,0.2869,0.2855,0.2882,0.2872,0.2873,0.2874,0,0.2069,0.2128,0.2199,0.2284,0.2307,0.2344,0.2416,0.2462,0.2533,0.2565,0.2615,0.2657,0.2715,0.2723,0.2806,0.2788,0.2825,0.2858,0.2861,0.2871,0.2878,0.2883,0.2892,0.2897,0.2881,0.2881,0.288,0,0.2035,0.2132,0.2189,0.2221,0.2321,0.2347,0.239,0.246,0.2501,0.2564,0.2593,0.2662,0.27,0.2755,0.2817,0.2816,0.2897,0.2908,0.2929,0.2927,0.2943,0.2942,0.296,0.2962,0.2962,0.2962,0.2962,0,0.2041,0.2083,0.2176,0.221,0.2262,0.2326,0.2376,0.2424,0.2488,0.2536,0.2588,0.2633,0.2711,0.2767,0.2816,0.2881,0.2897,0.2928,0.2941,0.2925,0.2921,0.295,0.2951,0.2963,0.2963,0.2963,0.2963,0,0.201,0.2073,0.2139,0.223,0.2255,0.2289,0.2369,0.2407,0.2458,0.2519,0.2538,0.2619,0.2688,0.2755,0.2848,0.2881,0.2948,0.2963,0.2924,0.2931,0.295,0.2948,0.299,0.3001,0.2992,0.2992,0.2992,0,0.201,0.2044,0.214,0.2176,0.2219,0.2275,0.2318,0.2386,0.2428,0.2516,0.2545,0.2618,0.2681,0.279,0.2859,0.2933,0.2952,0.2962,0.2963,0.2948,0.2957,0.2955,0.2962,0.296,0.296,0.296,0.296,0,0.2004,0.2035,0.2093,0.2165,0.2215,0.2274,0.2336,0.2363,0.2444,0.249,0.2562,0.2611,0.2708,0.2783,0.2865,0.2914,0.2952,0.2959,0.2969,0.2953,0.293,0.2947,0.2923,0.2958,0.2958,0.2958,0.2958,0.2958,0.1991,0.2026,0.2101,0.2167,0.2221,0.2279,0.2321,0.238,0.244,0.2524,0.2562,0.2636,0.2713,0.2828,0.2877,0.2939,0.2948,0.296,0.2964,0.2967,0.2965,0.2919,0.2954,0.2954,0.2954,0.2954,0.2954,0,0.1991,0.2043,0.2103,0.2189,0.2242,0.2273,0.2346,0.2389,0.2453,0.2521,0.2583,0.267,0.2744,0.2821,0.2901,0.2936,0.2957,0.2955,0.2954,0.2967,0.295,0.2936,0.2938,0.2938,0.2938,0.2938,0.2938,0.2938,0.1997,0.206,0.2102,0.2195,0.2249,0.2321,0.236,0.2417,0.2472,0.2566,0.2628,0.2678,0.2752,0.2839,0.2911,0.2932,0.2961,0.2956,0.2982,0.2966,0.2967,0.2967,0.2954,0.296,0.296,0.2994,0.2994,0.2994]},{"header":{"parameterUnit":"m.s-1","parameterCategory":1,"la1":30.2991,"la2":30.254,"lo1":-89.0895,"lo2":-89.0444,"dy":0.0017,"dx":0.0017,"nx":28,"ny":28,"refTime":"2025-03-02T09:00:00:Z","depth":0,"parameterNumber":3,"parameterNumberName":"V-component_of_WINDS"},"data":[0,0,0,0,0,0,0,0,0,0,0,0,0,0,0,0,0,0,0,0,0,0,0,0,0,0,0,0,0,0,0,0,0,0,0,0,0,0,0,0,0,0,0,0,0,0,0,0,0,0,0,0,0,0,0,0,0,0,-4.9356,-4.9355,0,-4.9257,-4.9256,-4.9255,-4.9218,-4.9219,-4.9219,-4.922,-4.9107,-4.9104,-4.9101,0,0,0,0,0,0,0,0,0,0,0,0,0,-4.9501,-4.9498,-4.9356,-4.9355,-4.9354,-4.9257,-4.9256,-4.9254,-4.9218,-4.9219,-4.9219,-4.922,-4.9108,-4.9104,-4.91,0,0,0,0,0,0,0,0,0,0,0,0,0,-4.9423,-4.9497,-4.9356,-4.9324,-4.932,-4.9258,-4.9256,-4.9254,-4.9218,-4.9219,-4.9219,-4.922,-4.911,-4.9105,-4.91,-4.9058,0,0,-4.9084,-4.9082,0,0,0,0,0,0,0,0,-4.9428,-4.9418,-4.933,-4.9326,-4.9322,-4.9251,-4.9266,-4.9188,-4.9218,-4.9257,-4.922,-4.922,-4.9154,-4.9145,-4.9125,-4.9053,-4.9048,-4.9084,-4.9081,-4.9079,-4.9077,0,0,0,0,0,0,0,-4.9433,-4.9422,-4.9316,-4.9329,-4.9324,-4.931,-4.93,-4.9251,-4.9203,-4.9253,-4.9251,-4.924,-4.9151,-4.913,-4.9122,-4.9046,-4.9084,-4.908,-4.9077,-4.9075,-4.8929,-4.8928,0,0,0,0,0,0,-4.9445,-4.9427,-4.932,-4.9314,-4.9378,-4.9307,-4.9296,-4.9273,-4.9204,-4.9194,-4.924,-4.9239,-4.9138,-4.9128,-4.9118,-4.9062,-4.9079,-4.9074,-4.9071,-4.893,-4.8929,-4.8928,0,0,0,0,0,0,-4.9449,-4.9436,-4.9324,-4.9369,-4.9354,-4.9305,-4.9279,-4.9271,-4.9249,-4.9193,-4.9183,-4.9227,-4.9138,-4.9125,-4.9073,-4.9057,-4.9072,-4.9067,-4.8931,-4.893,-4.8928,-4.895,0,0,0,0,0,0,-4.9453,-4.9438,-4.9425,-4.9369,-4.9352,-4.9284,-4.9278,-4.9268,-4.9242,-4.924,-4.9179,-4.9169,-4.9138,-4.9081,-4.9068,-4.9051,-4.9064,-4.8932,-4.893,-4.8929,-4.8951,-4.895,-4.8949,0,0,0,0,0,-4.9458,-4.9433,-4.9424,-4.9412,-4.9335,-4.9284,-4.9273,-4.9241,-4.9241,-4.9225,-4.9188,-4.9171,-4.9061,-4.9076,-4.9061,-4.9042,-4.8933,-4.8931,-4.8929,-4.8951,-4.895,-4.8949,0,0,0,0,0,0,-4.9485,-4.9426,-4.9415,-4.9373,-4.9334,-4.9278,-4.9257,-4.9241,-4.9199,-4.9198,-4.9155,-4.9142,-4.9092,-4.9062,-4.9079,-4.8995,-4.8995,-4.899,-4.9017,-4.9016,-4.9015,-4.9023,-4.9059,0,0,0,0,0,-4.9487,-4.9454,-4.9402,-4.9369,-4.9351,-4.9307,-4.9284,-4.9262,-4.9219,-4.9201,-4.9161,-4.9116,-4.907,-4.9042,-4.8997,-4.8946,-4.8929,-4.8925,-4.8925,-4.8924,-4.892,-4.8886,-4.8882,-4.8921,-4.8922,-4.8922,0,0,-4.9489,-4.9452,-4.9434,-4.9374,-4.9341,-4.9304,-4.9294,-4.9255,-4.9225,-4.9194,-4.9143,-4.9111,-4.9057,-4.9005,-4.8979,-4.8978,-4.8905,-4.8922,-4.8922,-4.8918,-4.8883,-4.888,-4.8876,-4.892,-4.892,-4.8921,0,0,-4.9473,-4.9444,-4.9412,-4.9379,-4.9331,-4.9302,-4.9294,-4.924,-4.9218,-4.9167,-4.9141,-4.9102,-4.9027,-4.8989,-4.896,-4.8926,-4.8906,-4.8912,-4.8907,-4.8874,-4.8871,-4.8868,-4.8852,-4.8847,-4.8908,-4.8908,-4.8908,0,-4.948,-4.9427,-4.9396,-4.9359,-4.9331,-4.9303,-4.9267,-4.9236,-4.9174,-4.9153,-4.9154,-4.9056,-4.9018,-4.8954,-4.8946,-4.8924,-4.8909,-4.8918,-4.8875,-4.8872,-4.8868,-4.8852,-4.8847,-4.8909,-4.8909,-4.8909,-4.8909,0,-4.9437,-4.94,-4.9379,-4.9323,-4.9293,-4.9256,-4.9215,-4.9187,-4.9167,-4.9136,-4.908,-4.9034,-4.8978,-4.8961,-4.894,-4.8892,-4.8892,-4.8884,-4.8883,-4.8866,-4.885,-4.8844,-4.891,-4.891,-4.8909,-4.8909,0,0,-4.9437,-4.9363,-4.9356,-4.9328,-4.9271,-4.9239,-4.9199,-4.9147,-4.9122,-4.9079,-4.9041,-4.8976,-4.8967,-4.8934,-4.8908,-4.8879,-4.885,-4.8874,-4.8871,-4.8868,-4.8788,-4.8793,-4.8787,-4.8837,-4.8836,-4.8835,-4.8792,0,-4.9412,-4.9344,-4.9313,-4.9256,-4.9218,-4.9189,-4.9153,-4.9111,-4.908,-4.904,-4.9003,-4.8957,-4.8951,-4.893,-4.8901,-4.886,-4.8833,-4.8863,-4.8796,-4.8794,-4.8809,-4.878,-4.8786,-4.8748,-4.8786,-4.8785,-4.8784,0,-4.9375,-4.9334,-4.9275,-4.9219,-4.9201,-4.917,-4.9118,-4.9082,-4.9031,-4.901,-4.8971,-4.8946,-4.8896,-4.8899,-4.8827,-4.8849,-4.8819,-4.8794,-4.8791,-4.8782,-4.8787,-4.8767,-4.8735,-4.8728,-4.8775,-4.8775,-4.8776,0,-4.9378,-4.9308,-4.9262,-4.9239,-4.9174,-4.9152,-4.9122,-4.9073,-4.9042,-4.8994,-4.8973,-4.8919,-4.8889,-4.8845,-4.8803,-4.8811,-4.8734,-4.8735,-4.871,-4.8711,-4.8694,-4.8696,-4.8655,-4.8679,-4.868,-4.868,-4.868,0,-4.9352,-4.9316,-4.9262,-4.9234,-4.919,-4.9152,-4.9108,-4.9076,-4.9032,-4.8992,-4.8962,-4.8925,-4.8874,-4.8828,-4.8794,-4.8737,-4.8724,-4.8702,-4.8693,-4.8703,-4.8706,-4.8682,-4.8682,-4.8678,-4.8678,-4.8679,-4.8679,0,-4.9348,-4.9312,-4.9259,-4.9201,-4.9185,-4.9155,-4.9102,-4.9071,-4.9038,-4.8988,-4.8973,-4.892,-4.8864,-4.8818,-4.8745,-4.8722,-4.866,-4.8652,-4.8679,-4.8674,-4.8651,-4.8652,-4.8591,-4.8579,-4.8615,-4.8614,-4.8614,0,-4.9334,-4.9306,-4.9244,-4.9218,-4.919,-4.9147,-4.9116,-4.9075,-4.9042,-4.898,-4.8955,-4.8898,-4.885,-4.8761,-4.8712,-4.8654,-4.8641,-4.8624,-4.8632,-4.8642,-4.8636,-4.8638,-4.8632,-4.8622,-4.8622,-4.8622,-4.8622,0,-4.9312,-4.9294,-4.9253,-4.9203,-4.9167,-4.9125,-4.9082,-4.906,-4.901,-4.8974,-4.8919,-4.8882,-4.8806,-4.8748,-4.8684,-4.8648,-4.8624,-4.862,-4.861,-4.862,-4.8635,-4.8623,-4.8674,-4.8621,-4.8621,-4.8621,-4.8621,-4.8621,-4.93,-4.9272,-4.9224,-4.9177,-4.914,-4.91,-4.9066,-4.9028,-4.8983,-4.8921,-4.8898,-4.8839,-4.8783,-4.8695,-4.8658,-4.8608,-4.8605,-4.8593,-4.8589,-4.8586,-4.8585,-4.8645,-4.8596,-4.8596,-4.8596,-4.8596,-4.8596,0,-4.9274,-4.9241,-4.9198,-4.9139,-4.91,-4.9086,-4.9036,-4.9003,-4.8953,-4.8905,-4.8858,-4.879,-4.8732,-4.8678,-4.8616,-4.8585,-4.8572,-4.857,-4.857,-4.8561,-4.8593,-4.8606,-4.8581,-4.8581,-4.8581,-4.8581,-4.8581,-4.8581,-4.9256,-4.9206,-4.9182,-4.9111,-4.9076,-4.9022,-4.8994,-4.8954,-4.8915,-4.8842,-4.8795,-4.8761,-4.8708,-4.864,-4.8584,-4.8569,-4.8545,-4.8545,-4.8526,-4.8557,-4.8559,-4.8561,-4.8573,-4.8541,-4.8541,-4.8498,-4.8497,-4.8497]}]]